PRIVATE WETTERSTATION BILLIGHEIM-ALLFELD                       ZURCK
Wetterdaten: Samstag, 08.02.2014
Datum Zeit Temp. A. Temp. A. min Temp. A. max Feuchte A. Luftdruck Regen Wind Richtung Richtung Sonnenschein ET Solar Taupunkt Windchill Windben Empfang
08.02.2014 00:00 4,1 C 3,9 C 4,2 C 80 % 1006,8 hPa 0,0 l/m 3,2 km/h (1 Bft) S-SO 157 0 min 0,025 mm 0 W/m 1,0 C 4,1 C 9,7 km/h (2 Bft) 98 %
08.02.2014 00:10 4,0 C 4,0 C 4,2 C 79 % 1006,9 hPa 0,0 l/m 3,2 km/h (1 Bft) S 180 0 min 0,000 mm 0 W/m 0,7 C 4,0 C 8,0 km/h (2 Bft) 97 %
08.02.2014 00:20 3,6 C 3,6 C 4,0 C 81 % 1006,8 hPa 0,0 l/m 3,2 km/h (1 Bft) S 180 0 min 0,000 mm 0 W/m 0,7 C 3,6 C 6,4 km/h (2 Bft) 98 %
08.02.2014 00:30 3,4 C 3,4 C 3,6 C 82 % 1006,8 hPa 0,0 l/m 4,8 km/h (1 Bft) S 180 0 min 0,000 mm 0 W/m 0,6 C 3,4 C 14,5 km/h (3 Bft) 97 %
08.02.2014 00:40 3,4 C 3,3 C 3,4 C 82 % 1006,8 hPa 0,0 l/m 4,8 km/h (1 Bft) S 180 0 min 0,000 mm 0 W/m 0,6 C 3,4 C 11,3 km/h (2 Bft) 97 %
08.02.2014 00:50 3,6 C 3,4 C 3,6 C 81 % 1007,0 hPa 0,0 l/m 4,8 km/h (1 Bft) S 180 0 min 0,000 mm 0 W/m 0,7 C 3,6 C 11,3 km/h (2 Bft) 97 %
08.02.2014 01:00 3,6 C 3,6 C 3,7 C 82 % 1006,9 hPa 0,0 l/m 6,4 km/h (2 Bft) S 180 0 min 0,025 mm 0 W/m 0,8 C 3,6 C 16,1 km/h (3 Bft) 98 %
08.02.2014 01:10 3,5 C 3,5 C 3,6 C 83 % 1006,7 hPa 0,0 l/m 6,4 km/h (2 Bft) S 180 0 min 0,000 mm 0 W/m 0,9 C 3,5 C 19,3 km/h (3 Bft) 97 %
08.02.2014 01:20 3,5 C 3,5 C 3,6 C 83 % 1006,7 hPa 0,0 l/m 6,4 km/h (2 Bft) S 180 0 min 0,000 mm 0 W/m 0,9 C 3,5 C 12,9 km/h (3 Bft) 98 %
08.02.2014 01:30 3,4 C 3,4 C 3,5 C 83 % 1006,4 hPa 0,0 l/m 4,8 km/h (1 Bft) S 180 0 min 0,000 mm 0 W/m 0,8 C 3,4 C 12,9 km/h (3 Bft) 98 %
08.02.2014 01:40 3,1 C 3,1 C 3,4 C 83 % 1006,3 hPa 0,0 l/m 3,2 km/h (1 Bft) S 180 0 min 0,000 mm 0 W/m 0,5 C 3,1 C 9,7 km/h (2 Bft) 96 %
08.02.2014 01:50 2,9 C 2,9 C 3,1 C 84 % 1006,3 hPa 0,0 l/m 1,6 km/h (1 Bft) S-SO 157 0 min 0,000 mm 0 W/m 0,5 C 2,9 C 8,0 km/h (2 Bft) 97 %
08.02.2014 02:00 2,8 C 2,7 C 2,9 C 85 % 1006,2 hPa 0,0 l/m 1,6 km/h (1 Bft) S 180 0 min 0,025 mm 0 W/m 0,5 C 2,8 C 6,4 km/h (2 Bft) 98 %
08.02.2014 02:10 2,8 C 2,7 C 2,8 C 85 % 1006,1 hPa 0,0 l/m 3,2 km/h (1 Bft) S-SO 157 0 min 0,000 mm 0 W/m 0,5 C 2,8 C 8,0 km/h (2 Bft) 97 %
08.02.2014 02:20 2,7 C 2,7 C 2,8 C 85 % 1006,0 hPa 0,0 l/m 3,2 km/h (1 Bft) S-SO 157 0 min 0,000 mm 0 W/m 0,4 C 2,7 C 8,0 km/h (2 Bft) 98 %
08.02.2014 02:30 2,8 C 2,7 C 2,8 C 85 % 1005,9 hPa 0,0 l/m 4,8 km/h (1 Bft) S-SO 157 0 min 0,000 mm 0 W/m 0,5 C 2,8 C 9,7 km/h (2 Bft) 98 %
08.02.2014 02:40 2,8 C 2,8 C 2,8 C 85 % 1005,7 hPa 0,0 l/m 3,2 km/h (1 Bft) S 180 0 min 0,000 mm 0 W/m 0,5 C 2,8 C 9,7 km/h (2 Bft) 98 %
08.02.2014 02:50 2,6 C 2,6 C 2,8 C 85 % 1005,7 hPa 0,0 l/m 1,6 km/h (1 Bft) S 180 0 min 0,000 mm 0 W/m 0,3 C 2,6 C 8,0 km/h (2 Bft) 94 %
08.02.2014 03:00 2,3 C 2,3 C 2,6 C 86 % 1005,5 hPa 0,0 l/m 1,6 km/h (1 Bft) S-SO 157 0 min 0,000 mm 0 W/m 0,2 C 2,3 C 6,4 km/h (2 Bft) 92 %
08.02.2014 03:10 2,4 C 2,3 C 2,4 C 86 % 1005,4 hPa 0,0 l/m 3,2 km/h (1 Bft) S-SO 157 0 min 0,000 mm 0 W/m 0,3 C 2,4 C 9,7 km/h (2 Bft) 98 %
08.02.2014 03:20 2,3 C 2,3 C 2,4 C 86 % 1005,3 hPa 0,0 l/m 1,6 km/h (1 Bft) S-SO 157 0 min 0,000 mm 0 W/m 0,2 C 2,3 C 9,7 km/h (2 Bft) 98 %
08.02.2014 03:30 2,2 C 2,2 C 2,4 C 86 % 1005,1 hPa 0,0 l/m 3,2 km/h (1 Bft) S-SO 157 0 min 0,000 mm 0 W/m 0,1 C 2,2 C 9,7 km/h (2 Bft) 98 %
08.02.2014 03:40 2,5 C 2,2 C 2,5 C 86 % 1005,0 hPa 0,0 l/m 4,8 km/h (1 Bft) S-SO 157 0 min 0,000 mm 0 W/m 0,4 C 2,5 C 9,7 km/h (2 Bft) 98 %
08.02.2014 03:50 2,6 C 2,5 C 2,6 C 85 % 1004,8 hPa 0,0 l/m 4,8 km/h (1 Bft) S-SO 157 0 min 0,000 mm 0 W/m 0,3 C 2,6 C 9,7 km/h (2 Bft) 97 %
08.02.2014 04:00 2,7 C 2,6 C 2,7 C 85 % 1004,8 hPa 0,0 l/m 4,8 km/h (1 Bft) S-SO 157 0 min 0,000 mm 0 W/m 0,4 C 2,7 C 16,1 km/h (3 Bft) 98 %
08.02.2014 04:10 2,7 C 2,7 C 2,8 C 84 % 1004,8 hPa 0,0 l/m 4,8 km/h (1 Bft) S-SO 157 0 min 0,000 mm 0 W/m 0,3 C 2,7 C 11,3 km/h (2 Bft) 98 %
08.02.2014 04:20 2,8 C 2,7 C 2,8 C 84 % 1004,4 hPa 0,0 l/m 4,8 km/h (1 Bft) S-SO 157 0 min 0,000 mm 0 W/m 0,4 C 2,8 C 11,3 km/h (2 Bft) 97 %
08.02.2014 04:30 2,9 C 2,8 C 2,9 C 84 % 1004,4 hPa 0,0 l/m 4,8 km/h (1 Bft) S-SO 157 0 min 0,000 mm 0 W/m 0,5 C 2,9 C 9,7 km/h (2 Bft) 97 %
08.02.2014 04:40 2,9 C 2,9 C 2,9 C 83 % 1004,3 hPa 0,0 l/m 4,8 km/h (1 Bft) S-SO 157 0 min 0,000 mm 0 W/m 0,3 C 2,9 C 9,7 km/h (2 Bft) 97 %
08.02.2014 04:50 2,9 C 2,9 C 3,0 C 83 % 1004,2 hPa 0,0 l/m 3,2 km/h (1 Bft) S-SO 157 0 min 0,000 mm 0 W/m 0,3 C 2,9 C 11,3 km/h (2 Bft) 98 %
08.02.2014 05:00 2,9 C 2,9 C 2,9 C 83 % 1004,0 hPa 0,0 l/m 1,6 km/h (1 Bft) S-SO 157 0 min 0,000 mm 0 W/m 0,3 C 2,9 C 8,0 km/h (2 Bft) 97 %
08.02.2014 05:10 3,0 C 2,9 C 3,0 C 82 % 1003,9 hPa 0,0 l/m 4,8 km/h (1 Bft) S-SO 157 0 min 0,000 mm 0 W/m 0,2 C 3,0 C 9,7 km/h (2 Bft) 97 %
08.02.2014 05:20 2,8 C 2,8 C 3,0 C 82 % 1003,8 hPa 0,0 l/m 1,6 km/h (1 Bft) S-SO 157 0 min 0,000 mm 0 W/m 0,0 C 2,8 C 8,0 km/h (2 Bft) 98 %
08.02.2014 05:30 2,6 C 2,6 C 2,8 C 83 % 1003,8 hPa 0,0 l/m 1,6 km/h (1 Bft) S-SO 157 0 min 0,000 mm 0 W/m 0,0 C 2,6 C 6,4 km/h (2 Bft) 98 %
08.02.2014 05:40 2,6 C 2,4 C 2,6 C 83 % 1003,6 hPa 0,0 l/m 1,6 km/h (1 Bft) S-SO 157 0 min 0,000 mm 0 W/m 0,0 C 2,6 C 6,4 km/h (2 Bft) 98 %
08.02.2014 05:50 2,7 C 2,6 C 2,7 C 82 % 1003,5 hPa 0,0 l/m 3,2 km/h (1 Bft) SO 135 0 min 0,000 mm 0 W/m -0,1 C 2,7 C 9,7 km/h (2 Bft) 98 %
08.02.2014 06:00 2,7 C 2,7 C 2,8 C 82 % 1003,3 hPa 0,0 l/m 3,2 km/h (1 Bft) S-SO 157 0 min 0,000 mm 0 W/m -0,1 C 2,7 C 8,0 km/h (2 Bft) 99 %
08.02.2014 06:10 2,7 C 2,7 C 2,7 C 81 % 1003,0 hPa 0,0 l/m 3,2 km/h (1 Bft) S-SO 157 0 min 0,000 mm 0 W/m -0,2 C 2,7 C 8,0 km/h (2 Bft) 87 %
08.02.2014 06:20 2,9 C 2,7 C 2,9 C 80 % 1003,0 hPa 0,0 l/m 4,8 km/h (1 Bft) S-SO 157 0 min 0,000 mm 0 W/m -0,2 C 2,9 C 11,3 km/h (2 Bft) 100 %
08.02.2014 06:30 3,0 C 2,9 C 3,0 C 80 % 1002,8 hPa 0,0 l/m 4,8 km/h (1 Bft) S-SO 157 0 min 0,000 mm 0 W/m -0,1 C 3,0 C 14,5 km/h (3 Bft) 99 %
08.02.2014 06:40 3,1 C 3,0 C 3,1 C 79 % 1002,8 hPa 0,0 l/m 4,8 km/h (1 Bft) S-SO 157 0 min 0,000 mm 0 W/m -0,2 C 3,1 C 11,3 km/h (2 Bft) 100 %
08.02.2014 06:50 2,9 C 2,9 C 3,1 C 79 % 1002,8 hPa 0,0 l/m 3,2 km/h (1 Bft) S-SO 157 0 min 0,000 mm 0 W/m -0,4 C 2,9 C 8,0 km/h (2 Bft) 100 %
08.02.2014 07:00 2,9 C 2,7 C 2,9 C 80 % 1002,5 hPa 0,0 l/m 3,2 km/h (1 Bft) S-SO 157 0 min 0,025 mm 0 W/m -0,2 C 2,9 C 9,7 km/h (2 Bft) 100 %
08.02.2014 07:10 3,2 C 2,9 C 3,2 C 78 % 1002,4 hPa 0,0 l/m 6,4 km/h (2 Bft) S-SO 157 0 min 0,000 mm 0 W/m -0,3 C 3,2 C 14,5 km/h (3 Bft) 100 %
08.02.2014 07:20 3,2 C 3,2 C 3,2 C 78 % 1002,6 hPa 0,0 l/m 6,4 km/h (2 Bft) S-SO 157 0 min 0,000 mm 0 W/m -0,3 C 3,2 C 12,9 km/h (3 Bft) 100 %
08.02.2014 07:30 3,2 C 3,1 C 3,2 C 78 % 1002,3 hPa 0,0 l/m 4,8 km/h (1 Bft) S-SO 157 0 min 0,000 mm 0 W/m -0,3 C 3,2 C 11,3 km/h (2 Bft) 99 %
08.02.2014 07:40 3,1 C 3,1 C 3,2 C 78 % 1002,4 hPa 0,0 l/m 4,8 km/h (1 Bft) S-SO 157 0 min 0,000 mm 0 W/m -0,4 C 3,1 C 14,5 km/h (3 Bft) 99 %
08.02.2014 07:50 3,1 C 3,1 C 3,1 C 77 % 1002,2 hPa 0,0 l/m 4,8 km/h (1 Bft) S-SO 157 0 min 0,000 mm 9 W/m -0,5 C 3,1 C 11,3 km/h (2 Bft) 100 %
08.02.2014 08:00 3,2 C 3,1 C 3,2 C 77 % 1002,1 hPa 0,0 l/m 4,8 km/h (1 Bft) S-SO 157 0 min 0,025 mm 21 W/m -0,4 C 3,2 C 12,9 km/h (3 Bft) 100 %
08.02.2014 08:10 3,3 C 3,2 C 3,3 C 77 % 1002,0 hPa 0,0 l/m 4,8 km/h (1 Bft) SO 135 0 min 0,000 mm 32 W/m -0,3 C 3,3 C 9,7 km/h (2 Bft) 100 %
08.02.2014 08:20 3,5 C 3,3 C 3,5 C 76 % 1001,7 hPa 0,0 l/m 4,8 km/h (1 Bft) S-SO 157 0 min 0,000 mm 39 W/m -0,3 C 3,5 C 11,3 km/h (2 Bft) 100 %
08.02.2014 08:30 3,7 C 3,5 C 3,7 C 76 % 1001,8 hPa 0,0 l/m 4,8 km/h (1 Bft) S-SO 157 0 min 0,000 mm 49 W/m -0,1 C 3,7 C 12,9 km/h (3 Bft) 99 %
08.02.2014 08:40 3,4 C 3,4 C 3,7 C 77 % 1001,8 hPa 0,0 l/m 3,2 km/h (1 Bft) S 180 0 min 0,000 mm 53 W/m -0,2 C 3,4 C 12,9 km/h (3 Bft) 100 %
08.02.2014 08:50 3,4 C 3,4 C 3,4 C 78 % 1001,7 hPa 0,0 l/m 3,2 km/h (1 Bft) S-SO 157 0 min 0,000 mm 76 W/m -0,1 C 3,4 C 8,0 km/h (2 Bft) 99 %
08.02.2014 09:00 3,7 C 3,4 C 3,7 C 77 % 1001,6 hPa 0,0 l/m 1,6 km/h (1 Bft) S-SO 157 0 min 0,025 mm 104 W/m 0,1 C 3,7 C 6,4 km/h (2 Bft) 100 %
08.02.2014 09:10 3,9 C 3,7 C 3,9 C 76 % 1001,3 hPa 0,0 l/m 3,2 km/h (1 Bft) S-SO 157 0 min 0,000 mm 120 W/m 0,1 C 3,9 C 9,7 km/h (2 Bft) 100 %
08.02.2014 09:20 4,2 C 3,9 C 4,2 C 74 % 1001,1 hPa 0,0 l/m 4,8 km/h (1 Bft) S-SO 157 0 min 0,000 mm 134 W/m -0,0 C 4,2 C 11,3 km/h (2 Bft) 100 %
08.02.2014 09:30 4,3 C 4,2 C 4,3 C 74 % 1000,8 hPa 0,0 l/m 8,0 km/h (2 Bft) S-SO 157 0 min 0,000 mm 88 W/m 0,1 C 2,9 C 17,7 km/h (3 Bft) 100 %
08.02.2014 09:40 4,4 C 4,3 C 4,4 C 73 % 1000,6 hPa 0,0 l/m 8,0 km/h (2 Bft) S-SO 157 0 min 0,000 mm 93 W/m -0,0 C 3,0 C 16,1 km/h (3 Bft) 99 %
08.02.2014 09:50 4,6 C 4,4 C 4,6 C 75 % 1000,5 hPa 0,0 l/m 4,8 km/h (1 Bft) S-SO 157 0 min 0,000 mm 132 W/m 0,6 C 4,6 C 11,3 km/h (2 Bft) 92 %
08.02.2014 10:00 4,8 C 4,5 C 4,8 C 75 % 1000,5 hPa 0,0 l/m 4,8 km/h (1 Bft) S-SO 157 10 min 0,051 mm 158 W/m 0,8 C 4,8 C 11,3 km/h (2 Bft) 99 %
08.02.2014 10:10 4,9 C 4,8 C 4,9 C 73 % 1000,4 hPa 0,0 l/m 6,4 km/h (2 Bft) S-SO 157 0 min 0,000 mm 144 W/m 0,5 C 4,9 C 11,3 km/h (2 Bft) 100 %
08.02.2014 10:20 5,1 C 4,9 C 5,1 C 73 % 1000,3 hPa 0,0 l/m 4,8 km/h (1 Bft) S-SO 157 0 min 0,000 mm 81 W/m 0,7 C 5,1 C 11,3 km/h (2 Bft) 100 %
08.02.2014 10:30 5,3 C 4,9 C 5,3 C 72 % 1000,1 hPa 0,0 l/m 4,4 km/h (1 Bft) SO 140 0 min 0,000 mm 127 W/m 0,7 C 5,3 C 9,7 km/h (2 Bft) 96 %
08.02.2014 10:40 5,5 C 5,3 C 5,5 C 73 % 1000,1 hPa 0,0 l/m 4,3 km/h (1 Bft) S-SO 161 0 min 0,000 mm 120 W/m 1,1 C 5,5 C 11,3 km/h (2 Bft) 98 %
08.02.2014 10:50 5,7 C 5,5 C 5,7 C 73 % 1000,0 hPa 0,0 l/m 3,8 km/h (1 Bft) S-SW 195 0 min 0,000 mm 120 W/m 1,2 C 5,7 C 11,3 km/h (2 Bft) 97 %
08.02.2014 11:00 5,7 C 5,7 C 5,7 C 73 % 999,8 hPa 0,0 l/m 2,6 km/h (1 Bft) S-SW 213 0 min 0,028 mm 107 W/m 1,2 C 5,7 C 8,0 km/h (2 Bft) 97 %
08.02.2014 11:10 5,7 C 5,6 C 5,7 C 74 % 999,7 hPa 0,0 l/m 0,8 km/h (0 Bft) S-SW 208 0 min 0,000 mm 93 W/m 1,4 C 5,7 C 4,8 km/h (1 Bft) 97 %
08.02.2014 11:20 5,6 C 5,6 C 5,7 C 74 % 999,8 hPa 0,0 l/m 2,4 km/h (1 Bft) S 188 0 min 0,000 mm 98 W/m 1,3 C 5,6 C 8,0 km/h (2 Bft) 98 %
08.02.2014 11:30 5,6 C 5,6 C 5,6 C 72 % 999,8 hPa 0,0 l/m 4,1 km/h (1 Bft) S 189 0 min 0,000 mm 113 W/m 1,0 C 5,6 C 11,3 km/h (2 Bft) 97 %
08.02.2014 11:40 5,6 C 5,6 C 5,6 C 73 % 999,6 hPa 0,0 l/m 1,6 km/h (1 Bft) S 171 0 min 0,000 mm 130 W/m 1,2 C 5,6 C 9,7 km/h (2 Bft) 98 %
08.02.2014 11:50 5,7 C 5,6 C 5,7 C 74 % 999,4 hPa 0,0 l/m 3,6 km/h (1 Bft) S 189 0 min 0,000 mm 118 W/m 1,4 C 5,7 C 8,0 km/h (2 Bft) 98 %
08.02.2014 12:00 5,8 C 5,7 C 5,8 C 75 % 999,3 hPa 0,0 l/m 2,5 km/h (1 Bft) S-SW 207 0 min 0,050 mm 151 W/m 1,7 C 5,8 C 9,7 km/h (2 Bft) 97 %
08.02.2014 12:10 6,0 C 5,8 C 6,0 C 73 % 998,8 hPa 0,0 l/m 4,1 km/h (1 Bft) S-SO 153 10 min 0,000 mm 174 W/m 1,5 C 6,0 C 9,7 km/h (2 Bft) 98 %
08.02.2014 12:20 6,3 C 5,9 C 6,3 C 71 % 998,4 hPa 0,0 l/m 2,9 km/h (1 Bft) SO 144 10 min 0,000 mm 186 W/m 1,4 C 6,3 C 9,7 km/h (2 Bft) 97 %
08.02.2014 12:30 6,7 C 6,3 C 6,7 C 69 % 998,1 hPa 0,0 l/m 6,0 km/h (2 Bft) S-SO 166 0 min 0,000 mm 125 W/m 1,4 C 6,7 C 14,5 km/h (3 Bft) 98 %
08.02.2014 12:40 6,8 C 6,7 C 6,8 C 67 % 997,8 hPa 0,0 l/m 7,2 km/h (2 Bft) S-SO 153 0 min 0,000 mm 111 W/m 1,1 C 6,1 C 16,1 km/h (3 Bft) 97 %
08.02.2014 12:50 7,0 C 6,8 C 7,0 C 66 % 997,7 hPa 0,0 l/m 7,0 km/h (2 Bft) S-SO 167 0 min 0,000 mm 86 W/m 1,1 C 6,5 C 17,7 km/h (3 Bft) 97 %
08.02.2014 13:00 7,3 C 7,0 C 7,3 C 64 % 997,5 hPa 0,0 l/m 9,9 km/h (2 Bft) S 178 0 min 0,077 mm 98 W/m 1,0 C 4,7 C 19,3 km/h (3 Bft) 96 %
08.02.2014 13:10 7,5 C 7,3 C 7,5 C 63 % 997,3 hPa 0,0 l/m 10,5 km/h (2 Bft) S 185 0 min 0,000 mm 104 W/m 0,9 C 4,5 C 20,9 km/h (4 Bft) 97 %
08.02.2014 13:20 7,8 C 7,5 C 7,8 C 60 % 997,1 hPa 0,0 l/m 12,1 km/h (2 Bft) S-SO 160 0 min 0,000 mm 114 W/m 0,5 C 3,9 C 24,1 km/h (4 Bft) 98 %
08.02.2014 13:30 7,9 C 7,8 C 8,0 C 60 % 997,0 hPa 0,0 l/m 11,6 km/h (2 Bft) S-SO 158 0 min 0,000 mm 120 W/m 0,6 C 4,3 C 22,5 km/h (4 Bft) 97 %
08.02.2014 13:40 8,2 C 7,9 C 8,2 C 59 % 996,7 hPa 0,0 l/m 12,0 km/h (2 Bft) S-SO 164 10 min 0,000 mm 158 W/m 0,7 C 4,4 C 20,9 km/h (4 Bft) 97 %
08.02.2014 13:50 8,4 C 8,2 C 8,4 C 58 % 996,3 hPa 0,0 l/m 7,8 km/h (2 Bft) S-SO 156 0 min 0,000 mm 102 W/m 0,6 C 7,3 C 17,7 km/h (3 Bft) 97 %
08.02.2014 14:00 8,6 C 8,4 C 8,6 C 56 % 996,0 hPa 0,0 l/m 10,1 km/h (2 Bft) S-SO 166 0 min 0,101 mm 84 W/m 0,3 C 6,0 C 25,7 km/h (4 Bft) 97 %
08.02.2014 14:10 8,6 C 8,5 C 8,6 C 56 % 996,0 hPa 0,0 l/m 7,3 km/h (2 Bft) S 171 0 min 0,000 mm 98 W/m 0,3 C 7,9 C 17,7 km/h (3 Bft) 98 %
08.02.2014 14:20 8,7 C 8,6 C 8,7 C 55 % 995,8 hPa 0,0 l/m 7,0 km/h (2 Bft) S-SO 148 0 min 0,000 mm 135 W/m 0,2 C 8,2 C 16,1 km/h (3 Bft) 97 %
08.02.2014 14:30 8,9 C 8,7 C 8,9 C 54 % 995,7 hPa 0,0 l/m 6,8 km/h (2 Bft) S 169 0 min 0,000 mm 81 W/m 0,1 C 8,6 C 20,9 km/h (4 Bft) 97 %
08.02.2014 14:40 9,1 C 8,9 C 9,1 C 54 % 995,6 hPa 0,0 l/m 10,8 km/h (2 Bft) S 180 0 min 0,000 mm 88 W/m 0,3 C 6,1 C 27,4 km/h (4 Bft) 97 %
08.02.2014 14:50 9,2 C 9,1 C 9,2 C 52 % 995,7 hPa 0,0 l/m 13,7 km/h (3 Bft) S-SW 194 0 min 0,000 mm 81 W/m -0,1 C 4,8 C 32,2 km/h (5 Bft) 98 %
08.02.2014 15:00 9,1 C 9,1 C 9,2 C 56 % 995,9 hPa 0,0 l/m 20,4 km/h (4 Bft) S 176 0 min 0,102 mm 54 W/m 0,8 C 2,0 C 37,0 km/h (5 Bft) 97 %
08.02.2014 15:10 8,8 C 8,8 C 9,1 C 59 % 995,9 hPa 0,0 l/m 17,4 km/h (3 Bft) SW 223 0 min 0,000 mm 58 W/m 1,2 C 2,7 C 32,2 km/h (5 Bft) 97 %
08.02.2014 15:20 8,5 C 8,5 C 8,8 C 63 % 996,2 hPa 0,0 l/m 24,2 km/h (4 Bft) S-SW 194 0 min 0,000 mm 26 W/m 1,9 C 0,0 C 45,1 km/h (6 Bft) 97 %
08.02.2014 15:30 7,9 C 7,9 C 8,5 C 69 % 996,1 hPa 0,0 l/m 26,2 km/h (4 Bft) SW 217 0 min 0,000 mm 67 W/m 2,6 C -1,3 C 45,1 km/h (6 Bft) 97 %
08.02.2014 15:40 7,6 C 7,6 C 7,9 C 71 % 996,0 hPa 0,0 l/m 18,9 km/h (3 Bft) SW 236 0 min 0,000 mm 62 W/m 2,7 C 0,6 C 32,2 km/h (5 Bft) 98 %
08.02.2014 15:50 7,4 C 7,4 C 7,6 C 73 % 995,9 hPa 0,0 l/m 15,1 km/h (3 Bft) S 181 0 min 0,000 mm 28 W/m 2,9 C 1,9 C 27,4 km/h (4 Bft) 97 %
08.02.2014 16:00 7,2 C 7,2 C 7,4 C 76 % 995,9 hPa 0,0 l/m 16,1 km/h (3 Bft) S-SW 202 0 min 0,076 mm 25 W/m 3,3 C 1,2 C 25,7 km/h (4 Bft) 89 %
08.02.2014 16:10 6,8 C 6,8 C 7,2 C 79 % 995,9 hPa 0,2 l/m 12,2 km/h (2 Bft) S-SW 204 0 min 0,000 mm 25 W/m 3,4 C 2,7 C 20,9 km/h (4 Bft) 98 %
08.02.2014 16:20 6,5 C 6,5 C 6,8 C 81 % 995,9 hPa 0,0 l/m 13,2 km/h (3 Bft) S 188 0 min 0,000 mm 19 W/m 3,5 C 1,8 C 24,1 km/h (4 Bft) 97 %
08.02.2014 16:30 6,3 C 6,3 C 6,5 C 83 % 995,9 hPa 0,2 l/m 13,5 km/h (3 Bft) S-SW 195 0 min 0,000 mm 16 W/m 3,6 C 1,4 C 27,4 km/h (4 Bft) 98 %
08.02.2014 16:40 6,1 C 6,1 C 6,3 C 85 % 995,8 hPa 0,2 l/m 10,0 km/h (2 Bft) S-SW 202 0 min 0,000 mm 14 W/m 3,8 C 3,3 C 24,1 km/h (4 Bft) 97 %
08.02.2014 16:50 5,9 C 5,9 C 6,1 C 86 % 995,9 hPa 0,0 l/m 13,2 km/h (3 Bft) S-SW 192 0 min 0,000 mm 5 W/m 3,7 C 1,1 C 24,1 km/h (4 Bft) 98 %
08.02.2014 17:00 5,7 C 5,7 C 5,9 C 87 % 995,9 hPa 0,4 l/m 8,0 km/h (2 Bft) S 190 0 min 0,025 mm 5 W/m 3,7 C 4,3 C 17,7 km/h (3 Bft) 97 %
08.02.2014 17:10 5,6 C 5,6 C 5,7 C 87 % 995,9 hPa 0,0 l/m 9,7 km/h (2 Bft) S-SW 204 0 min 0,000 mm 0 W/m 3,6 C 2,9 C 24,1 km/h (4 Bft) 97 %
08.02.2014 17:20 5,5 C 5,4 C 5,6 C 88 % 996,0 hPa 0,2 l/m 5,9 km/h (2 Bft) S 185 0 min 0,000 mm 0 W/m 3,7 C 5,5 C 16,1 km/h (3 Bft) 97 %
08.02.2014 17:30 5,4 C 5,4 C 5,5 C 88 % 996,0 hPa 0,2 l/m 5,4 km/h (1 Bft) S-SW 192 0 min 0,000 mm 0 W/m 3,6 C 5,4 C 12,9 km/h (3 Bft) 98 %
08.02.2014 17:40 5,3 C 5,3 C 5,4 C 88 % 996,1 hPa 0,4 l/m 5,3 km/h (1 Bft) S-SO 164 0 min 0,000 mm 0 W/m 3,5 C 5,3 C 14,5 km/h (3 Bft) 100 %
08.02.2014 17:50 5,3 C 5,2 C 5,3 C 88 % 996,2 hPa 0,2 l/m 7,3 km/h (2 Bft) S 173 0 min 0,000 mm 0 W/m 3,5 C 4,5 C 16,1 km/h (3 Bft) 100 %
08.02.2014 18:00 5,2 C 5,2 C 5,3 C 88 % 996,1 hPa 0,2 l/m 8,7 km/h (2 Bft) S 183 0 min 0,000 mm 0 W/m 3,4 C 3,3 C 17,7 km/h (3 Bft) 100 %
08.02.2014 18:10 5,1 C 5,1 C 5,2 C 88 % 996,4 hPa 0,4 l/m 9,1 km/h (2 Bft) S-SO 167 0 min 0,000 mm 0 W/m 3,3 C 2,8 C 20,9 km/h (4 Bft) 100 %
08.02.2014 18:20 5,1 C 5,1 C 5,2 C 88 % 996,4 hPa 0,2 l/m 6,8 km/h (2 Bft) SO 138 0 min 0,000 mm 0 W/m 3,3 C 4,8 C 16,1 km/h (3 Bft) 100 %
08.02.2014 18:30 5,1 C 5,1 C 5,1 C 88 % 996,3 hPa 0,2 l/m 8,0 km/h (2 Bft) S 185 0 min 0,000 mm 0 W/m 3,3 C 3,7 C 16,1 km/h (3 Bft) 100 %
08.02.2014 18:40 5,1 C 5,1 C 5,1 C 88 % 996,2 hPa 0,2 l/m 11,3 km/h (2 Bft) SO 131 0 min 0,000 mm 0 W/m 3,3 C 1,3 C 20,9 km/h (4 Bft) 99 %
08.02.2014 18:50 5,1 C 5,1 C 5,1 C 88 % 996,2 hPa 0,2 l/m 11,3 km/h (2 Bft) S 171 0 min 0,000 mm 0 W/m 3,3 C 1,3 C 22,5 km/h (4 Bft) 100 %
08.02.2014 19:00 5,0 C 5,0 C 5,1 C 88 % 996,1 hPa 0,2 l/m 9,6 km/h (2 Bft) SO 146 0 min 0,000 mm 0 W/m 3,2 C 2,4 C 20,9 km/h (4 Bft) 100 %
08.02.2014 19:10 5,0 C 5,0 C 5,1 C 88 % 996,2 hPa 0,2 l/m 8,8 km/h (2 Bft) S 183 0 min 0,025 mm 0 W/m 3,2 C 3,0 C 19,3 km/h (3 Bft) 100 %
08.02.2014 19:20 5,0 C 4,9 C 5,0 C 88 % 996,1 hPa 0,0 l/m 9,5 km/h (2 Bft) S 191 0 min 0,001 mm 0 W/m 3,2 C 2,4 C 24,1 km/h (4 Bft) 100 %
08.02.2014 19:30 5,0 C 5,0 C 5,0 C 88 % 996,1 hPa 0,2 l/m 11,0 km/h (2 Bft) S 180 0 min 0,000 mm 0 W/m 3,2 C 1,4 C 22,5 km/h (4 Bft) 100 %
08.02.2014 19:40 5,0 C 5,0 C 5,1 C 88 % 996,0 hPa 0,2 l/m 10,9 km/h (2 Bft) S-SO 156 0 min 0,000 mm 0 W/m 3,2 C 1,5 C 20,9 km/h (4 Bft) 100 %
08.02.2014 19:50 5,0 C 5,0 C 5,1 C 88 % 995,8 hPa 0,0 l/m 9,4 km/h (2 Bft) S-SO 166 0 min 0,000 mm 0 W/m 3,2 C 2,5 C 20,9 km/h (4 Bft) 100 %
08.02.2014 20:00 5,1 C 5,0 C 5,1 C 88 % 995,7 hPa 0,0 l/m 12,7 km/h (3 Bft) S-SW 197 0 min 0,025 mm 0 W/m 3,3 C 0,5 C 25,7 km/h (4 Bft) 100 %
08.02.2014 20:10 5,1 C 5,1 C 5,1 C 89 % 995,7 hPa 0,0 l/m 12,3 km/h (3 Bft) S 187 0 min 0,000 mm 0 W/m 3,4 C 0,7 C 25,7 km/h (4 Bft) 100 %
08.02.2014 20:20 5,1 C 5,1 C 5,1 C 89 % 995,7 hPa 0,0 l/m 11,2 km/h (2 Bft) S-SW 192 0 min 0,000 mm 0 W/m 3,4 C 1,4 C 22,5 km/h (4 Bft) 100 %
08.02.2014 20:30 5,1 C 5,1 C 5,1 C 94 % 995,7 hPa 0,0 l/m 11,3 km/h (2 Bft) S-SO 165 0 min 0,000 mm 0 W/m 4,2 C 1,3 C 24,1 km/h (4 Bft) 100 %
08.02.2014 20:40 5,1 C 5,1 C 5,1 C 89 % 995,6 hPa 0,2 l/m 11,3 km/h (2 Bft) S 186 0 min 0,000 mm 0 W/m 3,4 C 1,3 C 20,9 km/h (4 Bft) 100 %
08.02.2014 20:50 5,0 C 5,0 C 5,1 C 88 % 995,7 hPa 0,0 l/m 9,4 km/h (2 Bft) S-SO 160 0 min 0,000 mm 0 W/m 3,2 C 2,5 C 20,9 km/h (4 Bft) 100 %
08.02.2014 21:00 4,9 C 4,9 C 5,0 C 88 % 995,6 hPa 0,2 l/m 10,4 km/h (2 Bft) S-SW 192 0 min 0,026 mm 0 W/m 3,1 C 1,7 C 22,5 km/h (4 Bft) 100 %
08.02.2014 21:10 4,9 C 4,9 C 4,9 C 88 % 995,7 hPa 0,0 l/m 11,3 km/h (2 Bft) S-SO 157 0 min 0,000 mm 0 W/m 3,1 C 1,1 C 20,9 km/h (4 Bft) 96 %
08.02.2014 21:20 4,8 C 4,8 C 4,9 C 89 % 995,7 hPa 0,2 l/m 11,3 km/h (2 Bft) S 180 0 min 0,000 mm 0 W/m 3,1 C 1,0 C 24,1 km/h (4 Bft) 98 %
08.02.2014 21:30 4,8 C 4,8 C 4,8 C 89 % 995,5 hPa 0,0 l/m 11,3 km/h (2 Bft) S-SO 157 0 min 0,000 mm 0 W/m 3,1 C 1,0 C 19,3 km/h (3 Bft) 99 %
08.02.2014 21:40 4,8 C 4,8 C 4,8 C 89 % 995,7 hPa 0,0 l/m 9,7 km/h (2 Bft) S-SO 157 0 min 0,000 mm 0 W/m 3,1 C 2,1 C 22,5 km/h (4 Bft) 100 %
08.02.2014 21:50 4,7 C 4,7 C 4,8 C 89 % 995,9 hPa 0,0 l/m 8,0 km/h (2 Bft) S 180 0 min 0,000 mm 0 W/m 3,0 C 3,3 C 19,3 km/h (3 Bft) 100 %
08.02.2014 22:00 4,7 C 4,7 C 4,7 C 89 % 995,7 hPa 0,0 l/m 8,0 km/h (2 Bft) S 180 0 min 0,025 mm 0 W/m 3,0 C 3,3 C 17,7 km/h (3 Bft) 100 %
08.02.2014 22:10 4,7 C 4,7 C 4,7 C 89 % 995,7 hPa 0,2 l/m 8,0 km/h (2 Bft) S 180 0 min 0,000 mm 0 W/m 3,0 C 3,3 C 19,3 km/h (3 Bft) 100 %
08.02.2014 22:20 4,7 C 4,7 C 4,7 C 89 % 995,9 hPa 0,0 l/m 9,7 km/h (2 Bft) S-SO 157 0 min 0,000 mm 0 W/m 3,0 C 2,0 C 20,9 km/h (4 Bft) 100 %
08.02.2014 22:30 4,7 C 4,7 C 4,7 C 89 % 995,8 hPa 0,0 l/m 8,0 km/h (2 Bft) S 180 0 min 0,000 mm 0 W/m 3,0 C 3,3 C 20,9 km/h (4 Bft) 100 %
08.02.2014 22:40 4,8 C 4,7 C 4,8 C 89 % 995,9 hPa 0,0 l/m 9,7 km/h (2 Bft) S 180 0 min 0,000 mm 0 W/m 3,1 C 2,1 C 20,9 km/h (4 Bft) 100 %
08.02.2014 22:50 4,7 C 4,7 C 4,8 C 89 % 996,1 hPa 0,0 l/m 9,7 km/h (2 Bft) S-SO 157 0 min 0,000 mm 0 W/m 3,0 C 2,0 C 20,9 km/h (4 Bft) 100 %
08.02.2014 23:00 4,8 C 4,7 C 4,8 C 89 % 996,4 hPa 0,0 l/m 9,7 km/h (2 Bft) S 180 0 min 0,000 mm 0 W/m 3,1 C 2,1 C 22,5 km/h (4 Bft) 100 %
08.02.2014 23:10 4,8 C 4,8 C 4,8 C 89 % 996,6 hPa 0,0 l/m 11,3 km/h (2 Bft) S 180 0 min 0,000 mm 0 W/m 3,1 C 1,0 C 25,7 km/h (4 Bft) 100 %
08.02.2014 23:20 4,8 C 4,8 C 4,8 C 89 % 996,5 hPa 0,0 l/m 9,7 km/h (2 Bft) S 180 0 min 0,000 mm 0 W/m 3,1 C 2,1 C 20,9 km/h (4 Bft) 100 %
08.02.2014 23:30 4,9 C 4,8 C 4,9 C 88 % 996,6 hPa 0,0 l/m 8,0 km/h (2 Bft) S 180 0 min 0,000 mm 0 W/m 3,1 C 3,5 C 17,7 km/h (3 Bft) 88 %
08.02.2014 23:40 4,9 C 4,9 C 4,9 C 88 % 996,7 hPa 0,0 l/m 9,7 km/h (2 Bft) S-SO 157 0 min 0,000 mm 0 W/m 3,1 C 2,2 C 19,3 km/h (3 Bft) 100 %
08.02.2014 23:50 4,9 C 4,9 C 4,9 C 88 % 997,0 hPa 0,0 l/m 8,0 km/h (2 Bft) S-SO 157 0 min 0,000 mm 0 W/m 3,1 C 3,5 C 19,3 km/h (3 Bft) 100 %
_ Min-Zeit 03:30 03:30 03:10 14:50 21:30 - 11:10 - - - - - 07:50 15:30 11:10 06:10
Minimum _ 2,2 C 2,2 C 2,4 C 52 % 995,5 hPa - 0,8 km/h (0 Bft) - - - - - -0,5 C -1,3 C 4,8 km/h (1 Bft) 87 %
_ Max-Zeit 14:50 14:50 14:50 20:30 00:50 17:00 15:30 - - 10:00 15:00 12:20 20:30 14:30 15:20 06:50
Maximum _ 9,2 C 9,1 C 9,2 C 94 % 1007,0 hPa 0,4 l/m 26,2 km/h
SW (4 Bft)
- - 10 min 0,102 mm 186 W/m 4,2 C 8,6 C 45,1 km/h
SW (6 Bft)
100 %
Durchschnitt _ 4,8 C 4,7 C 4,9 C 80 % 999,8 hPa #5,0 l/m 7,2 km/h (2 Bft) S-SO - #40 min. #0,762 mm 87 W/m 1,4 C 3,4 C 16,1 km/h (3 Bft) 98 %
PRIVATE WETTERSTATION BILLIGHEIM-ALLFELD - www.neckar-odenwald-wetter.de - Holger Sonntag